Big Rapids, MI

11:23 AM EDT on April 27, 2017 (GMT -0400)
Roben-Hood

Weather History for KRQB - December, 2013

Change the Weather History Date:

Sunday, December 1, 2013

  Actual Average Record
Temperature  
Mean Temperature 36 °F -  
Max Temperature 40 °F 36 °F 63 °F (1970)
Min Temperature 32 °F 21 °F -4 °F (2007)
Degree Days  
Heating Degree Days 29    
Moisture  
Dew Point 28 °F    
Average Humidity 76    
Maximum Humidity 100    
Minimum Humidity 51    
Precipitation  
Precipitation 0.00 in - - ()
Sea Level Pressure  
Sea Level Pressure 30.02 in    
Wind  
Wind Speed 2 mph (North)    
Max Wind Speed 9 mph    
Max Gust Speed -    
Visibility 8 miles    
Events      
Averages and records for this station are not official NWS values.
T = Trace of Precipitation, MM = Missing Value Source: NWS Daily Summary

Daily Weather History Graph

Daily Weather History Graph

Search for Another Location

Airport or City:

Trip Planner

Search our weather history database for the weather conditions in past years. The results will help you decide how hot, cold, wet, or windy it might be!

Date:

Astronomy

Dec. 01, 2013 Rise Set
Actual Time 7:56 AM EST 5:06 PM EST
Civil Twilight 7:23 AM EST 5:38 PM EST
Nautical Twilight 6:48 AM EST 6:14 PM EST
Astronomical Twilight 6:13 AM EST 6:48 PM EST
Moon 6:10 AM EST (12/1) 4:17 PM EST (12/1)
Length of Visible Light 10h 14m
Length of Day
9h 10m
Waning Crescent, 2% of the Moon is Illuminated
Dec 1
Waning Crescent
Dec 2
New
Dec 9
First Quarter
Dec 17
Full
Dec 25
Last Quarter

Hourly Weather History & Observations

Time (EST) Temp. Windchill Dew Point Humidity Pressure Visibility Wind Dir Wind Speed Gust Speed Precip Events Conditions
12:14 AM 36.5 °F - 30.4 °F 78% 30.01 in 10.0 mi Calm Calm - N/A   Mostly Cloudy
12:35 AM 36.1 °F - 31.1 °F 82% 30.01 in 10.0 mi Calm Calm - N/A   Overcast
12:55 AM 36.7 °F 34.1 °F 31.1 °F 80% 30.00 in 10.0 mi WNW 3.5 mph - N/A   Overcast
1:14 AM 37.0 °F - 31.6 °F 81% 30.00 in 10.0 mi Calm Calm - N/A   Overcast
1:35 AM 36.1 °F - 31.1 °F 82% 30.00 in 10.0 mi Calm Calm - N/A   Overcast
1:55 AM 35.4 °F - 31.5 °F 85% 30.00 in 10.0 mi Calm Calm - N/A   Overcast
2:15 AM 35.8 °F - 31.8 °F 86% 30.00 in 10.0 mi Calm Calm - N/A   Overcast
2:35 AM 35.8 °F - 32.0 °F 86% 30.00 in 7.0 mi Calm Calm - N/A   Overcast
2:54 AM 36.0 °F - 32.0 °F 86% 30.00 in 7.0 mi Calm Calm - N/A   Overcast
3:15 AM 34.3 °F 31.4 °F 32.2 °F 92% 30.00 in 7.0 mi West 3.5 mph - N/A   Overcast
3:35 AM 34.7 °F - 32.0 °F 90% 30.00 in 7.0 mi Calm Calm - N/A   Overcast
3:54 AM 33.6 °F - 32.5 °F 96% 30.00 in 7.0 mi Calm Calm - N/A   Overcast
4:15 AM 34.7 °F - 33.4 °F 95% 30.00 in 7.0 mi Calm Calm - N/A   Overcast
4:35 AM 35.6 °F - 32.4 °F 88% 30.00 in 7.0 mi Calm Calm - N/A   Overcast
4:54 AM 35.2 °F 32.4 °F 32.4 °F 89% 30.00 in 7.0 mi NW 3.5 mph - N/A   Overcast
5:15 AM 35.6 °F - 32.5 °F 89% 30.00 in 5.0 mi Calm Calm - N/A   Overcast
5:35 AM 35.1 °F - 32.4 °F 90% 30.01 in 5.0 mi Calm Calm - N/A   Mostly Cloudy
5:55 AM 34.7 °F 31.8 °F 33.1 °F 94% 30.01 in 5.0 mi NW 3.5 mph - N/A   Mostly Cloudy
6:15 AM 34.9 °F 30.8 °F 33.4 °F 94% 30.02 in 5.0 mi NNW 4.6 mph - N/A   Overcast
6:35 AM 35.1 °F 31.0 °F 33.3 °F 93% 30.02 in 5.0 mi NW 4.6 mph - N/A   Overcast
6:55 AM 34.9 °F 30.8 °F 33.4 °F 94% 30.03 in 5.0 mi NNW 4.6 mph - N/A   Overcast
7:14 AM 34.7 °F 30.6 °F 34.7 °F 100% 30.03 in 3.0 mi NNW 4.6 mph - N/A   Overcast
7:35 AM 34.7 °F 30.6 °F 34.7 °F 100% 30.03 in 3.0 mi NNW 4.6 mph - N/A   Overcast
7:55 AM 34.7 °F 30.6 °F 34.7 °F 100% 30.04 in 2.5 mi NNW 4.6 mph - N/A   Overcast
8:14 AM 34.7 °F 31.8 °F 34.7 °F 100% 30.04 in 2.5 mi NNW 3.5 mph - N/A   Overcast
8:35 AM 34.2 °F 31.2 °F 34.2 °F 100% 30.04 in 2.5 mi NW 3.5 mph - N/A   Mostly Cloudy
8:55 AM 34.0 °F 31.0 °F 34.0 °F 100% 30.04 in 2.5 mi NNW 3.5 mph - N/A   Scattered Clouds
9:14 AM 34.2 °F - 34.2 °F 100% 30.04 in 2.5 mi Calm Calm - N/A   Scattered Clouds
9:35 AM 34.7 °F 28.8 °F 34.0 °F 97% 30.04 in 3.0 mi North 6.9 mph - N/A   Scattered Clouds
9:55 AM 34.9 °F 28.3 °F 33.6 °F 95% 30.05 in 4.0 mi North 8.1 mph - N/A   Mostly Cloudy
10:14 AM 34.9 °F 29.0 °F 31.8 °F 89% 30.05 in 5.0 mi NNE 6.9 mph - N/A   Overcast
10:35 AM 35.4 °F 30.5 °F 30.2 °F 81% 30.06 in 5.0 mi NNE 5.8 mph - N/A   Haze
10:55 AM 36.0 °F 31.1 °F 30.0 °F 79% 30.06 in 5.0 mi NNE 5.8 mph - N/A   Haze
11:14 AM 36.7 °F 31.2 °F 29.5 °F 75% 30.06 in 7.0 mi NE 6.9 mph - N/A   Clear
11:35 AM 37.4 °F 34.9 °F 29.3 °F 73% 30.05 in 7.0 mi NE 3.5 mph - N/A   Scattered Clouds
11:55 AM 38.1 °F 33.7 °F 28.4 °F 68% 30.04 in 10.0 mi NE 5.8 mph - N/A   Scattered Clouds
12:14 PM 39.2 °F - 28.6 °F 66% 30.03 in 10.0 mi Calm Calm - N/A   Scattered Clouds
12:35 PM 38.7 °F 32.9 °F 27.7 °F 65% 30.03 in 10.0 mi North 8.1 mph - N/A   Overcast
12:55 PM 38.5 °F 35.0 °F 23.0 °F 54% 30.02 in 10.0 mi NNW 4.6 mph - N/A   Mostly Cloudy
1:14 PM 40.5 °F 34.6 °F 23.5 °F 51% 30.02 in 10.0 mi North 9.2 mph - N/A   Overcast
1:35 PM 38.7 °F 34.3 °F 23.9 °F 55% 30.02 in 10.0 mi North 5.8 mph - N/A   Overcast
1:55 PM 38.7 °F 34.3 °F 24.8 °F 58% 30.02 in 10.0 mi North 5.8 mph - N/A   Overcast
2:14 PM 38.7 °F 34.3 °F 24.1 °F 56% 30.01 in 10.0 mi North 5.8 mph - N/A   Overcast
2:35 PM 38.3 °F 33.9 °F 24.6 °F 58% 30.01 in 10.0 mi North 5.8 mph - N/A   Overcast
2:55 PM 37.8 °F 32.5 °F 25.0 °F 60% 30.01 in 10.0 mi NNE 6.9 mph - N/A   Overcast
3:14 PM 37.8 °F 33.3 °F 24.3 °F 58% 30.01 in 10.0 mi North 5.8 mph - N/A   Overcast
3:35 PM 37.8 °F 33.3 °F 23.2 °F 56% 30.01 in 10.0 mi North 5.8 mph - N/A   Overcast
3:55 PM 37.4 °F - 23.5 °F 57% 30.01 in 10.0 mi Calm Calm - N/A   Overcast
4:14 PM 37.2 °F - 23.9 °F 59% 30.02 in 10.0 mi Calm Calm - N/A   Overcast
4:35 PM 37.0 °F 34.5 °F 23.5 °F 58% 30.01 in 10.0 mi North 3.5 mph - N/A   Overcast
4:55 PM 37.0 °F 34.5 °F 23.5 °F 58% 30.01 in 10.0 mi North 3.5 mph - N/A   Overcast
5:14 PM 36.5 °F 33.9 °F 23.9 °F 60% 30.01 in 10.0 mi North 3.5 mph - N/A   Overcast
5:35 PM 36.5 °F - 23.5 °F 59% 30.01 in 10.0 mi Calm Calm - N/A   Overcast
5:55 PM 36.5 °F 33.9 °F 23.0 °F 58% 30.01 in 10.0 mi NNE 3.5 mph - N/A   Overcast
6:14 PM 36.5 °F - 22.8 °F 58% 30.01 in 10.0 mi Calm Calm - N/A   Overcast
6:35 PM 36.0 °F - 23.0 °F 59% 30.02 in 10.0 mi Calm Calm - N/A   Overcast
6:55 PM 36.0 °F - 22.8 °F 59% 30.02 in 10.0 mi Calm Calm - N/A   Overcast
7:14 PM 35.4 °F - 23.4 °F 62% 30.01 in 10.0 mi Calm Calm - N/A   Overcast
7:35 PM 35.2 °F - 23.4 °F 62% 30.01 in 10.0 mi Calm Calm - N/A   Overcast
7:55 PM 35.2 °F - 23.0 °F 61% 30.01 in 10.0 mi Calm Calm - N/A   Overcast
8:14 PM 35.2 °F - 22.8 °F 61% 30.01 in 10.0 mi Calm Calm - N/A   Overcast
8:35 PM 35.2 °F - 22.8 °F 61% 30.01 in 10.0 mi Calm Calm - N/A   Overcast
8:55 PM 34.5 °F - 24.6 °F 67% 30.01 in 10.0 mi Calm Calm - N/A   Overcast
9:14 PM 35.2 °F - 23.2 °F 62% 30.00 in 10.0 mi Calm Calm - N/A   Overcast
9:35 PM 33.8 °F - 25.7 °F 72% 30.01 in 10.0 mi Calm Calm - N/A   Overcast
9:55 PM 33.8 °F - 24.8 °F 70% 30.01 in 10.0 mi Calm Calm - N/A   Overcast
10:14 PM 33.4 °F - 25.5 °F 73% 30.01 in 10.0 mi Calm Calm - N/A   Overcast
10:35 PM 33.1 °F - 26.4 °F 77% 30.01 in 10.0 mi Calm Calm - N/A   Overcast
10:55 PM 33.3 °F - 26.6 °F 77% 30.00 in 10.0 mi Calm Calm - N/A   Overcast
11:14 PM 33.1 °F - 26.8 °F 78% 30.00 in 10.0 mi Calm Calm - N/A   Overcast
11:35 PM 32.9 °F - 27.0 °F 79% 29.99 in 10.0 mi Calm Calm - N/A   Overcast
11:55 PM 32.4 °F - 27.3 °F 82% 29.99 in 10.0 mi North - - N/A   Overcast